User: anonymous   Login
Location: ?????
(54.9266°N, 38.5527°E)
Time: 03:32:41
(UTC+00:00)
Language:

Cosmos 2237 Rocket - Orbit

View from above orbital plane
View from above orbital plane
View from above satellite
View from above satellite

Ground track
Ground track

The orbit data is extracted from the following two-line orbital elements,

1 22566U 93016B   24164.92567467 -.00000073  00000-0 -12934-4 0  9998
2 22566  71.0078 108.2195 0011675 219.9442 140.0823 14.15140068612369
Epoch (UTC): 12 June 2024 22:12:58
Eccentricity: 0.0011675
inclination: 71.0078°
perigee height: 833 km
apogee height: 850 km
right ascension of ascending node: 108.2195°
argument of perigee: 219.9442°
revolutions per day: 14.15140068
mean anomaly at epoch: 140.0823°
orbit number at epoch: 61236

The dashed part of the orbit path shows where the satellite is in the earth's shadow,  

DLR